Theta_e
347 353 359 361 362 364 363 363 364 363 362 363 364 362 363 364 364 366 367 367 367 368 366 366 364 364 365 365 364 365 364 363 362 362 362 362 361 360 361 360 363 355 360
356 359 362 364 364 365 363 364 363 364 363 363 363 363 364 364 364 365 366 365 366 367 366 365 363 362 364 362 361 363 363 364 365 363 362 362 362 360 361 362 364 359 360
355 359 362 367 368 365 367 367 363 363 362 363 364 364 364 364 365 364 365 365 365 365 365 364 362 362 364 363 363 362 364 363 365 364 365 355 359 362 360 360 361 360 360
354 357 361 367 367 367 368 367 366 364 364 364 365 365 365 365 365 364 365 365 364 365 364 361 360 360 362 363 363 364 363 359 355 358 356 349 349 357 358 358 357 356 358
355 357 364 368 368 367 366 366 365 365 364 365 364 364 365 365 363 362 364 364 364 364 364 361 359 359 362 364 363 363 360 358 357 356 351 351 348 355 357 357 357 358 360
354 357 365 368 366 365 365 365 365 364 363 362 363 364 363 361 362 359 364 363 364 364 364 364 360 359 361 359 357 359 359 355 357 351 349 353 349 356 356 357 356 356 358
356 356 360 366 366 365 364 364 364 363 363 362 361 361 360 362 360 358 360 360 362 360 362 362 362 360 360 362 361 360 358 353 355 353 352 352 356 360 358 355 356 357 358
357 356 358 365 365 365 364 364 364 364 362 362 361 359 358 357 356 356 357 359 359 360 361 361 361 361 360 358 356 354 355 350 347 350 348 350 359 360 360 359 357 355 356
353 355 358 359 364 364 364 364 364 363 362 359 356 357 352 349 351 354 351 354 356 358 358 358 358 358 356 355 353 353 355 354 350 348 346 349 360 359 360 359 358 359 356
350 351 354 357 358 359 362 363 364 363 361 357 354 356 349 349 346 348 352 354 354 356 356 355 355 355 355 354 355 355 355 354 353 357 352 352 357 355 357 359 358 357 358
348 350 351 352 353 355 357 360 362 361 358 354 356 354 349 347 347 350 351 348 351 355 355 355 355 355 356 356 358 359 358 353 354 354 351 354 355 352 354 358 358 358 358
347 347 349 349 350 352 352 360 360 359 357 350 344 352 349 351 347 347 350 349 351 355 355 357 358 359 359 350 356 357 353 354 355 349 350 357 354 352 353 357 357 359 359
348 348 348 355 353 354 356 355 359 366 355 351 344 349 347 349 349 346 344 345 352 354 349 352 354 352 349 350 348 351 355 353 354 351 355 358 354 354 355 355 357 359 360
348 348 349 352 355 358 357 356 354 359 354 350 348 348 346 345 347 349 347 341 345 350 351 350 349 350 353 350 349 350 352 352 351 351 355 359 356 356 357 356 357 358 359
347 348 349 352 356 355 360 356 354 356 357 355 352 352 349 353 351 346 350 358 355 351 350 350 350 352 352 349 346 348 349 354 352 354 354 359 357 354 357 357 359 359 360
348 348 350 351 356 358 359 361 363 358 359 353 347 360 353 352 359 355 351 356 360 360 356 350 349 349 352 348 345 347 349 351 350 357 353 355 358 356 355 357 358 361 361
349 351 350 352 355 357 361 359 365 361 358 351 347 351 352 360 356 355 352 352 361 356 359 360 354 351 350 347 346 346 347 350 353 358 358 355 357 357 356 356 357 362 363
352 355 355 352 353 357 359 359 359 359 356 355 354 352 350 352 357 359 358 359 355 362 358 359 351 347 348 346 344 344 345 347 352 353 358 356 354 357 358 360 361 362 361
355 356 356 357 353 356 361 360 361 361 358 356 355 356 357 355 357 362 360 362 363 360 358 358 354 349 347 344 342 345 346 346 355 348 351 356 357 356 355 360 363 363 362
356 359 361 359 361 362 361 363 359 357 355 360 357 357 361 361 358 358 358 362 361 361 351 357 356 356 351 347 344 344 345 346 350 350 350 350 353 352 353 359 359 359 363
354 357 361 362 365 362 359 360 366 355 357 365 365 364 361 361 360 360 356 355 355 361 350 355 357 354 353 354 354 349 346 346 346 348 350 349 350 350 354 354 359 358 358
352 356 361 363 367 367 363 363 362 360 358 360 362 366 365 361 361 360 358 357 359 355 357 356 356 356 354 357 345 345 338 341 344 346 348 346 347 351 352 353 355 358 357
352 355 360 365 367 369 371 368 369 365 364 366 360 360 364 365 362 360 361 357 363 364 354 356 356 353 349 350 353 349 339 333 344 347 348 346 351 350 351 353 351 355 360
345 352 359 364 368 368 370 369 370 363 361 362 360 360 365 364 363 362 361 360 362 360 358 357 355 356 356 354 357 349 348 351 350 343 348 351 350 349 351 351 351 355 358
349 353 355 362 366 367 368 369 363 364 361 360 361 365 368 365 366 363 363 362 360 359 360 360 359 358 364 357 351 357 352 347 350 349 344 343 351 352 351 350 351 353 356
352 353 354 359 364 366 366 365 366 363 364 361 367 365 364 368 367 366 364 363 363 362 360 360 362 360 360 358 356 353 353 353 349 350 346 349 344 346 349 351 353 355 354
Wind_Speed
10 10 11 10 11 13 16 16 16 16 15 14 15 15 14 14 14 14 14 14 14 14 14 15 14 14 16 17 16 17 17 17 17 17 16 15 13 11 9 11 15 16 15
17 14 13 13 13 15 15 15 16 16 15 13 13 13 12 12 13 13 14 15 15 14 16 15 15 13 14 16 15 15 15 14 14 16 18 16 15 13 14 15 16 14 14
17 17 16 15 16 16 15 14 15 15 14 12 13 12 12 11 12 12 13 14 14 15 15 15 14 13 12 15 15 14 14 11 11 15 16 13 13 13 13 15 15 14 14
18 17 18 15 16 15 15 14 14 14 13 12 12 11 11 10 11 11 12 13 13 14 15 14 14 13 12 13 13 14 12 7 2 8 5 14 12 11 11 12 13 13 13
11 15 17 15 15 15 15 14 14 12 12 11 11 9 11 10 10 9 10 11 13 14 13 14 13 13 12 14 12 12 10 6 5 4 7 10 11 10 11 12 12 10 10
15 16 16 15 15 14 14 13 12 11 10 11 10 9 9 10 10 7 9 11 12 12 12 13 13 11 11 12 11 10 7 2 8 7 7 7 12 11 8 10 11 11 11
13 17 16 13 13 13 12 12 11 10 9 9 9 10 10 10 9 7 7 8 10 10 10 10 10 11 10 8 8 7 4 3 5 3 5 6 13 10 9 10 10 10 10
17 18 16 12 12 12 12 12 10 11 10 10 12 14 16 19 14 5 4 6 5 8 8 8 8 8 7 5 4 3 3 3 4 4 2 2 11 10 8 9 9 9 9
17 18 15 15 13 12 12 11 10 11 11 13 14 16 18 15 11 13 1 3 3 5 5 5 5 6 5 3 2 3 4 4 2 3 5 6 13 9 8 7 8 8 8
14 14 13 13 13 13 12 11 12 12 15 18 15 14 14 12 5 12 6 2 1 2 3 3 3 4 4 5 6 6 7 8 8 6 7 9 14 10 8 8 8 8 7
11 14 15 14 12 12 13 11 12 14 17 17 15 12 11 5 6 8 5 3 5 4 4 4 5 5 7 11 13 14 12 8 9 6 1 17 15 11 10 9 9 9 8
12 12 12 14 14 11 7 14 10 12 9 8 7 6 4 4 5 3 10 6 8 8 7 8 8 8 11 10 9 12 1 5 5 6 6 15 13 12 12 11 10 11 10
12 8 10 8 10 8 9 9 6 4 5 5 7 7 6 4 3 3 4 6 6 7 7 10 11 9 12 6 4 2 4 6 2 5 9 14 12 10 11 13 13 12 12
11 10 12 9 6 6 6 6 8 6 6 6 5 8 6 6 9 8 7 7 9 6 8 9 4 11 5 2 8 4 5 4 5 2 8 15 14 12 12 13 15 15 14
11 10 9 10 7 7 5 2 6 6 7 6 9 10 9 6 7 6 7 6 7 7 7 8 8 3 6 8 8 7 6 7 9 2 4 15 15 13 13 14 14 16 16
10 11 10 11 11 10 7 2 3 4 6 4 7 6 10 8 6 4 9 7 6 7 8 7 9 9 6 8 8 8 8 7 10 6 5 8 15 17 15 15 15 16 16
9 10 11 11 13 11 8 8 6 5 5 4 5 5 10 9 10 9 9 6 7 6 9 7 9 7 8 8 9 8 8 10 7 5 5 5 9 17 19 17 16 16 17
8 11 8 10 12 13 11 8 5 6 7 8 8 6 8 10 13 9 7 7 10 7 5 6 5 9 11 8 9 8 8 9 7 8 7 6 7 9 14 19 19 17 18
10 7 8 9 10 12 10 9 9 6 7 8 8 5 10 11 13 10 8 9 8 5 7 6 7 9 9 9 9 8 9 9 4 9 1 6 6 7 7 18 19 19 19
11 13 12 10 9 9 8 8 8 8 8 7 8 9 10 8 10 10 10 7 4 6 7 5 8 5 7 8 9 10 10 10 7 9 7 11 12 10 10 15 13 13 18
11 10 12 11 10 9 9 9 7 10 7 6 7 8 11 10 9 10 9 8 9 7 6 8 7 8 5 7 4 9 9 10 11 11 12 11 9 13 13 11 9 9 12
8 10 11 11 12 9 9 8 8 6 7 6 7 7 11 10 9 9 11 9 8 7 9 9 9 6 6 6 6 7 9 10 13 12 10 9 11 7 6 7 10 10 7
8 9 9 9 10 11 12 7 4 6 5 5 7 7 9 10 10 11 11 9 7 7 9 9 8 7 6 4 10 4 6 6 2 1 8 10 6 9 11 10 12 11 9
6 8 8 8 8 10 11 10 10 8 7 6 7 8 5 8 10 11 11 11 9 6 9 8 9 8 9 7 3 10 13 8 4 3 3 6 7 9 9 7 10 9 10
4 6 5 6 6 6 6 9 8 10 8 8 6 7 7 9 11 11 10 10 12 10 9 9 8 10 6 7 8 5 7 9 6 4 6 7 4 7 9 10 9 7 12
4 3 5 7 4 5 6 7 9 10 7 7 4 7 7 6 6 12 11 12 11 11 12 10 10 11 10 9 7 9 6 2 4 4 7 8 9 4 2 11 6 5 10
Wind_Direction
192 199 206 186 159 136 133 129 128 122 126 125 121 122 118 113 111 112 111 110 108 108 111 111 112 113 108 103 103 105 107 107 107 109 107 104 100 94 95 112 122 98 97
169 174 185 170 157 139 134 133 131 127 131 127 122 123 120 112 111 111 113 112 109 110 109 114 108 109 110 108 106 107 110 118 124 122 116 102 89 91 89 79 78 94 94
150 133 158 153 145 141 137 131 132 131 134 132 126 129 120 119 115 115 115 112 115 115 110 110 112 111 113 117 114 112 105 117 135 145 165 110 97 92 90 94 101 103 103
141 145 141 142 139 135 132 131 135 134 138 138 133 129 125 127 121 121 121 120 120 119 116 118 121 122 114 110 107 110 109 116 166 223 208 109 101 104 103 103 110 114 112
128 121 120 131 134 136 136 135 134 137 135 136 133 141 133 128 117 117 121 126 126 122 121 122 123 123 126 107 110 110 122 156 228 248 73 108 109 115 120 123 132 140 110
138 120 126 130 133 137 136 136 128 134 138 142 148 141 125 121 114 117 109 115 114 119 125 127 129 127 118 116 119 118 128 193 277 93 125 110 88 125 121 100 102 110 111
132 126 132 132 133 133 135 134 134 141 124 122 120 105 101 93 94 108 114 121 125 124 119 118 121 124 125 120 121 117 117 345 16 43 16 26 114 138 133 124 126 128 127
160 141 134 136 138 140 140 137 143 123 123 105 88 73 70 51 28 21 112 108 111 119 123 124 129 128 130 126 130 127 116 340 54 31 40 340 127 147 155 146 143 143 141
145 127 142 149 145 145 146 150 138 124 109 100 106 99 96 81 20 334 90 130 134 127 125 132 134 132 131 136 159 202 210 213 179 181 225 226 146 155 170 168 164 164 157
131 133 145 142 158 158 152 139 133 127 118 101 79 97 102 128 138 266 329 56 1 150 147 154 166 167 166 182 199 206 218 226 246 169 220 123 147 164 194 178 181 181 185
139 156 153 154 159 171 146 141 143 129 119 125 96 108 122 170 187 239 283 301 277 260 215 195 204 210 218 220 213 204 211 225 186 243 340 142 144 167 196 203 193 201 201
147 172 149 163 159 173 161 148 159 146 140 141 125 152 152 184 220 255 289 273 275 259 244 227 221 225 240 242 212 213 2 294 159 232 122 140 153 176 204 211 215 205 212
165 180 156 144 161 169 117 155 136 160 162 149 162 176 190 193 214 253 262 283 268 258 260 214 208 232 232 279 285 308 197 40 179 245 147 145 160 181 208 217 219 220 218
176 189 154 165 169 164 138 169 163 153 171 180 194 196 201 220 219 217 234 217 242 241 247 248 198 273 297 262 275 279 313 329 295 263 158 157 161 188 205 216 221 222 225
178 181 174 167 172 223 183 233 172 142 174 213 192 199 222 216 241 220 242 254 235 264 250 266 266 264 229 248 259 266 261 221 283 319 182 172 171 186 203 217 223 226 228
173 174 182 184 174 211 217 123 100 164 210 214 242 202 226 245 245 252 246 240 253 244 263 238 229 252 246 251 234 256 256 262 193 243 134 195 183 182 200 215 224 227 228
172 163 187 191 174 205 199 208 173 181 199 227 233 235 250 253 239 231 231 242 238 227 245 247 241 250 254 225 237 256 260 257 236 253 254 190 179 191 193 207 219 225 228
174 161 181 190 185 185 209 206 193 186 233 231 207 202 230 255 264 247 246 225 237 189 221 243 222 217 222 226 247 245 245 258 195 236 225 251 158 205 199 206 207 218 227
155 166 176 196 199 183 205 215 225 214 220 238 244 207 240 233 250 246 242 241 217 218 210 230 254 235 213 227 232 239 245 254 214 246 177 247 237 212 171 196 206 207 218
168 175 184 193 210 182 209 210 224 189 230 220 245 245 240 226 238 261 241 244 253 229 245 214 245 287 283 251 253 230 242 242 208 235 250 244 209 225 237 176 190 204 209
180 187 186 199 184 203 204 206 238 217 222 220 249 225 246 248 240 238 249 243 230 230 211 246 238 241 249 265 247 274 245 250 248 231 224 228 189 187 236 150 216 209 189
211 192 191 199 188 201 224 229 209 210 244 232 227 237 225 231 230 243 235 250 226 225 225 212 224 215 245 231 236 258 247 222 231 226 217 241 200 215 210 231 239 236 173
200 205 207 198 198 199 220 214 220 269 281 258 229 230 220 221 224 231 241 237 256 204 234 218 227 254 237 241 218 239 254 236 310 255 215 221 216 206 211 194 230 222 207
194 222 199 195 196 203 215 237 217 223 224 235 248 235 240 227 230 223 231 229 240 229 231 230 218 236 224 232 209 221 250 285 314 316 300 335 242 234 247 193 215 212 188
164 188 201 168 197 239 199 236 248 227 251 228 232 246 239 219 228 226 220 227 232 232 234 240 229 225 234 246 223 252 241 238 225 272 266 272 228 284 238 219 224 218 194
260 209 164 144 174 192 215 224 238 267 268 267 266 289 222 232 224 225 221 217 232 228 233 227 227 225 239 242 237 265 244 275 308 260 261 271 279 229 252 284 230 220 198